Погода в Салехарде

Погода в Салехарде : погода сейчас, прогноз погоды и архив. Всё, что Вы хотите узнать о погоде в Салехарде!

Хотите узнать прогноз погоды в Салехарде? Тогда Вам сюда: Погода в Салехарде

Поиск расширенной информации на нашем сайте:

Другие новости

Новости СМИ2

Главная страница сайта

Новости сайта

03.07.2017

Напоминаем, что на нашем специализированном сайте Метеоцентр.Азия вы можете получить высокодетализированные автоматические прогнозы погоды по пунктам России, СНГ и мира в авиационном формате (включающие направление и скорость ветра, видимость, явления погоды, количество и форму облачности, нижнюю и верхнюю границу облачности).


Погода в Салехарде - сегодня

Время (UTC), дата Ветер
(°,м/с) 
Видим.   Явления Облачность Т
(°С)
Тd
(°С)
f(%) Тe
(°С)
Pmin
(гПа)
dP
(гПа)
Po
(мм)
O2
(г/м3)
Тmin Tmax R s Состояние
почвы
03 13.10.18 тихо ()   10 км  слаб. ливневой снег  10/6 300 м кучево-дожд., средняя, верхняя 
[Cb calv|Ac trans|Ci fib]
-1.7 -2.3 96 -2  995.3  1.1  745  302  -1.7    0.6  равномерный
сухой снег
100% 
15 13.10.18 360 (С) 4000 м  слаб. снег  10/6 240 м средняя 
[Frnb|Ac As]
+0.4 -0.4 94 1000.9  1.3  749  301    +1.8     
03 14.10.18 020 (С) 10 км  слаб. снег [диам. гололёда 2 мм]  10/8 360 м средняя 
[Frnb|Ac As]
-0.4 -1.3 94 -1  1006.8  1.7  754  304  -0.4       
15 14.10.18 тихо ()   10 км  {ливн. осадки}  10/4 1000 м средняя 
[Sc|Ac trans]
+0.6 -0.3 94 +1  1011.3  0.8  757  304    +1.5  0.3     
21 14.10.18 300 (СЗ) 10 км    5/0 средняя 
[Ac trans]
+0.4 -3.5 75 -1  1013.3  1.5  758  306           
00 15.10.18 270 (З) 10 км    8/5 1320 м средняя 
[Sc|Ac trans]
-1.1 -4.5 78 -1  1013.8  0.5  759  307           
03 15.10.18 тихо ()   20000 м    3/3 1000 м 
[Sc]
-5.5 -7.9 83 -6  1014.8  760  313  -5.5      мокрый или
старый снег
50-90% 
06 15.10.18 330 (СЗ) 20000 м    8/4 1000 м средняя 
[Sc|Ac trans]
-0 -4.5 72 -1  1015.6  0.8  760  307           
09 15.10.18 300 (СЗ) 20000 м    8/0 средняя 
[Ac trans]
+1.5 -4.4 65 +2  1016.1  0.5  761  305           
12 15.10.18 170 (Ю) 20000 м    3/1 1000 м верхняя 
[Sc|Ci sp]
-0.7 -4.5 75 1015.9  -0.2  760  308           
15 15.10.18 190 (Ю) 10 км    ясно 
-3.5 -5 89 -3  1015.3  -0.6  760  311           
18 15.10.18 180 (Ю) 10 км    3/0 средняя 
[Ac trans]
-0.8 -2.3 90 -3  1012.9  -2.4  758  307           
03 16.10.18 190 (Ю) 8-14{15}  2000 м  ливневой снег  10/8 300 м кучево-дожд., средняя 
[Cb cap|As op]
-0.6 -1.3 95 -5  1000.6  -4.4  749  303  -3.4       
15 16.10.18 230 (ЮЗ) 5{11}  4000 м  слаб. ливневой дождь  10/8 870 м кучево-дожд., средняя 
[Cb calv|Ac trans]
+2.5 -0.2 82 994.7  -1.5  745  297    +4  0.6     
21 16.10.18 260 (З) 4{16}  10 км    8/4 600 м средняя 
[Sc|Ac trans]
+3.5 -1 72 +2  992  -0.3  743  295           
03 17.10.18 290 (З) 3{10}  20000 м    10/6 1000 м средняя, верхняя 
[Cu Sc|Ac trans|Ci sp]
+1.2 -1.8 80 991.9  0.5  742  298  +1.2    0.0  мокрый или
старый снег
50-90% 
09 17.10.18 300 (СЗ) 4{11}  20000 м    9/5 1000 м средняя 
[Sc|Ac trans]
+2.2 -3.1 68 995.6  2.3  745  298           
15 17.10.18 010 (С) 4000 м  слаб. ливневой снег  10/10 1050 м кучево-дожд. 
[Cb calv]
+1.1 -2.9 75 1001.7  3.4  750  301    +3  0.0     
03 18.10.18 350 (С) 20000 м    9/3 1000 м средняя 
[Sc|Ac trans]
-2 -6.7 70 -3  1011.2  1.6  757  308  -2.9    0.0  мокрый или
старый снег
50-90% 
06 18.10.18 300 (СЗ) 20000 м    10/8 1500 м средняя 
[Sc|Ac trans]
+0.6 -4.4 69 1011.8  0.6  757  305           
09 18.10.18 310 (СЗ) 20000 м    10/6 1500 м средняя 
[Sc|Ac trans]
+1.6 -4.3 65 +2  1011.8  757  304           
12 18.10.18 290 (З) 20000 м    10/8 1500 м средняя 
[Sc|Ac trans]
+0.6 -4 71 +1  1011.6  -0.3  757  305           
15 18.10.18 тихо ()   10 км    10/8 1500 м средняя 
[Sc|Ac trans]
-0.7 -3.9 79 -1  1011.5  0.1  757  306    +1.7       
18 18.10.18 тихо ()   10 км    10/6 1500 м средняя 
[Sc|Ac und]
-0.6 -3.9 78 -1  1010.2  -1.3  756  306           
21 18.10.18 190 (Ю) 10 км    10/5 1500 м средняя 
[Sc|Ac und]
-1.1 -3.1 86 -1  1009.6  -0.6  756  306           
Время (UTC), дата Ветер
(°,м/с) 
Видим.   Явления Облачность Т
(°С)
Тd
(°С)
f(%) Тe
(°С)
Pmin
(гПа)
dP
(гПа)
Po
(мм)
O2
(г/м3)
Тmin Tmax R s Состояние
почвы

Для получения пояснительной информации подведите курсор к названию столбца.

ПОГОДА в Салехарде - архив

Всё, что Вы хотите узнать о погоде в Салехарде - удобно и подробно!

Выберите нужную дату (начиная с 1 января 2015* года) и нажмите кнопку "Найти".
Будут отображены архивные сводки погоды по пункту Салехард, начиная с указанной даты.


Отображать данные в формате CSV (для использования в таблицах Excel)


Внимание! Наш архив погоды предназначен исключительно для личного некоммерческого использования в познавательных целях. Если Вам необходимы официальные справки о состоянии погоды (для производственных, юридических, коммерческих и т.п. целей), обращайтесь в органы Росгидромета.

*Примечание: данная дата относится к архиву по метеостанциям СССР (Россия, СНГ, Балтия).
Архив по метеостанциям Зарубежной Европы и Азии (кроме Китая) хранится 10 дней, по другим регионам земного шара (Китай, Африка, Америка, Австралия, Океания) - 1 день.

Салехард - район местоположения метеостанции


Название, широта, долгота, высота метеостанции:
Салехард (город) 66.5°ш. 66.7°д. 16 м над ур. моря [Российская Федерация]

Дополнительная информация

В oтличие oт бoльшинства пoгoдных сайтoв мы публикуем пoдрoбную метеoинфoрмацию в детальнoм прoфессиoнальнoм фoрмате.

Характеристики температуры и влажнoсти вoздуха измеряются на высoте 2 м в тени вдали oт зданий и деревьев.
Скoрoсть ветра измеряется на высoте 10 м (на урoвне рoста челoвека скoрoсть ветра ниже в 1.5-2 раза). Если метеoстанция нахoдится в гoрoде или в лесу, тo скoрoсть ветра занижена на 2-4 м/с пo сравнению с oткрытым местoм. Скoрoсть ветра над акватoриями крупных рек и oзёр, а также на вершинах хoлмoв на 2-5 м/с выше, чем в oбычных услoвиях.
Атмoсфернoе давление в разных тoчках местнoсти мoжет значительнo oтличаться oт давления на метеoстанции, в зависимoсти oт услoвий рельефа (при пoдъёме на 10 м давление пoнижается примернo на 1 мм рт.ст.).